Location: Degersen
(52.2871°N, 9.5716°E)
Time: 23:19:13
(UTC+00:00)

Cosmos 1461 - Pass Details

Date: 20 January 2026
Orbit: 426 x 505 km, 65.0° (Epoch: 7 February)

Event Time Altitude Azimuth Distance (km) Brightness Sun altitude
Rises 06:40:04 0° 247° (WSW) 2,610 5.9 -6.1°
Reaches altitude 10° 06:42:21 10° 256° (WSW) 1,732 4.9 -5.7°
Maximum altitude 06:45:57 35° 324° (NW) 837 3.3 -5.2°
Drops below altitude 10° 06:49:34 10° 32° (NNE) 1,740 5.4 -4.7°
Sets 06:51:53 0° 41° (NE) 2,623 6.5 -4.4°
